CZ-6A DEB, 61450

Orbit data source: Space-Track

CZ-6A DEB, 61450 is space debris in LEO originally from a launch on Tue, 06 Aug 2024 UTC launched from the Taiyaun Space Center, China (TSC). Debris objects in space refer to the collection of defunct objects orbiting the Earth. Examples of debris include non-operational satellites, rocket bodies, and fragments generated from explosions, collisions, or faulty payload assembly.

Loading next visibility...
Identifier
61450, 2024-140ZG
Orbit
LEO
Country
Flag of CNCN / PRC
Related business
Manufacturer
SAST
Mission
Spacecraft
Bus & Motor
Unknown
Mass
Unknown
Launch date (UTC)
2024-08-06 (2 years ago)
Launch vehicle
Unknown
Launch site
Taiyaun Space Center, China (TSC)
Object type
Payload
Rocket body
Debris
Shape & HBR
Unknown shape, 0.1 m
Radar Cross Section
Small (<0.1 m²)

Expand to show TLE details & history
Last TLE update: 13 hours ago

TLE from 13 hours ago
0 CZ-6A DEB
1 61450U 24140ZG  26171.30208494  .00002885  00000-0  10925-2 0  9996
2 61450  89.1153 282.9034 0077365 215.0073 144.6023 14.29324976 94188
Epoch: 2026-06-20T07:15Z
TLE epoch observation values (Epoch: 2026-06-20T07:15:00.138Z)
Latitude
-0.00011°
Longitude
-94.36584°
Altitude
842.438 km
Speed
7.408 km/s
True Right ascension
18h 51m 36s
True Declination
0° 00' 00"
Sunlit
Object was in full shadow at epoch
Visualization orbit readout
Latitude
Unknown
Longitude
Unknown
Altitude
Unknown
Speed
Unknown
Apparent Right ascension
Unknown
Apparent Declination
Unknown
Sunlit
N/A
Visualization observer readout
Local Sidereal Time
07:21:30
Azimuth
Unknown
Elevation
Unknown
Doppler factor
Unknown
Orbital elements
Apogee altitude
846.388 km
Perigee altitude
735.462 km
Semi-major axis
7,169.062 km
Eccentricity
0.00774
Inclination
89.1153°
RAAN
282.9034°
Arg. of periapsis
215.0073°
True anomaly
145.1118°
Mean anomaly
144.6023°
Eccentric anomaly
144.85745°
Mean motion
3.57561 °/min
Orbital period
100.68 mins
BSTAR
0.0010925
Loading maneuver chart data...
Computing Atmospheric mass density...
Loading historical data...
Loading historical data...
Loading historical data...
Loading historical data...
Loading historical data...
Loading historical data...
Loading historical data...

Documentation

Showing up to 5 results
|